Creek Data

    Home     View Charts     View Raw Data     Messages

ID Distance Battery Voltage Battery Current Internal Temp Internal Humidity External Temp Solar Input rssi snr Time Stamp Record
36851 0.0 3.88 0 52 37 54 5.1 -77 9 04/04/2025 09:00 AM 18713
36850 15.1 3.87 0 51 37 52 5.1 -76 8 04/04/2025 08:45 AM 18712
36849 15.1 3.86 0 49 37 51 5.1 -78 7 04/04/2025 08:30 AM 18711
36848 15.1 4.02 0 47 37 50 5.1 -77 8 04/04/2025 08:15 AM 18710
36847 15.0 3.86 0 45 37 48 5.1 -77 8 04/04/2025 08:00 AM 18709
36846 15.1 3.88 0 43 38 47 5.1 -77 8 04/04/2025 07:45 AM 18708
36845 15.0 3.96 26 41 39 45 4.5 -78 8 04/04/2025 07:30 AM 18707
36844 0.0 3.99 10 40 39 44 4.5 -79 9 04/04/2025 07:15 AM 18706
36843 15.0 3.71 0 39 39 42 4.5 -79 8 04/04/2025 07:00 AM 18705
36842 0.0 3.67 -7 38 40 41 2.7 -79 9 04/04/2025 06:45 AM 18704
36841 15.0 3.70 -5 38 39 41 0.7 -78 8 04/04/2025 06:30 AM 18703
36840 15.0 3.72 -34 38 40 40 0 -79 7 04/04/2025 06:15 AM 18702
36839 15.0 3.89 -5 38 39 40 0 -78 8 04/04/2025 06:00 AM 18701
36838 15.0 3.89 -5 38 39 41 0 -78 8 04/04/2025 05:45 AM 18700
36837 15.0 3.71 -5 38 40 40 0 -79 8 04/04/2025 05:30 AM 18699
36836 15.1 3.71 -5 38 40 40 0 -79 7 04/04/2025 05:00 AM 18697
36835 15.0 3.72 -5 38 40 40 0 -79 8 04/04/2025 04:45 AM 18696
36834 15.0 3.73 -5 38 40 40 0 -79 8 04/04/2025 04:30 AM 18695
36833 15.0 3.74 -5 39 40 43 0 -78 8 04/04/2025 04:15 AM 18694
36832 15.0 3.73 -5 39 41 41 0 -78 9 04/04/2025 04:00 AM 18693
36831 15.0 3.89 -5 41 40 40 0.1 -78 7 04/04/2025 03:45 AM 18692
36830 15.0 3.89 -5 41 40 43 0 -78 8 04/04/2025 03:30 AM 18691
36829 15.0 3.89 -5 41 40 43 0 -78 8 04/04/2025 03:15 AM 18690
36828 15.0 3.90 -5 41 40 43 0 -79 8 04/04/2025 03:00 AM 18689
36827 15.0 3.90 -5 40 41 44 0 -79 9 04/04/2025 02:45 AM 18688